Location: Bieujac
(44.5398°N, 0.1549°W)
Time: 18:15:49
(UTC+00:00)

COSMOS 2428 - Pass Details

Date: 17 November 2019
Orbit: 844 x 858 km, 70.9° (Epoch: 15 December)

Event Time Altitude Azimuth Distance (km) Brightness Sun altitude
Rises 06:23:07 0° 337° (NNW) 3,425 5.5 -6.7°
Reaches altitude 10° 06:25:38 10° 341° (NNW) 2,488 4.8 -6.3°
Maximum altitude 06:31:16 57° 60° (ENE) 1,001 3.4 -5.4°
Drops below altitude 10° 06:36:52 10° 139° (SE) 2,482 6.4 -4.5°
Sets 06:39:22 0° 144° (SE) 3,416 7.0 -4.0°
